TimeMST,TemperatureF,Dew PointF,Humidity,Sea Level PressureIn,VisibilityMPH,Wind Direction,Wind SpeedMPH,Gust SpeedMPH,PrecipitationIn,Events,Conditions,WindDirDegrees,DateUTC
12:48 AM,26.1,19.9,78,30.12,-9999.0,West,4.6,-,N/A,,Unknown,280,2012-12-04 07:48:00
1:48 AM,26.1,19.9,78,30.12,-9999.0,WNW,4.6,-,N/A,,Unknown,290,2012-12-04 08:48:00
2:48 AM,26.1,21.0,81,30.14,-9999.0,West,6.9,-,N/A,,Unknown,280,2012-12-04 09:48:00
3:48 AM,23.0,19.9,88,30.15,-9999.0,WSW,5.8,-,N/A,,Unknown,240,2012-12-04 10:48:00
4:48 AM,27.0,19.9,75,30.15,-9999.0,West,3.5,-,N/A,,Unknown,280,2012-12-04 11:48:00
5:48 AM,21.9,18.0,85,30.18,-9999.0,Calm,Calm,-,N/A,,Unknown,0,2012-12-04 12:48:00
6:48 AM,19.9,17.1,89,30.18,-9999.0,Calm,Calm,-,N/A,,Unknown,0,2012-12-04 13:48:00
7:48 AM,19.9,17.1,89,30.17,-9999.0,Calm,Calm,-,N/A,,Unknown,0,2012-12-04 14:48:00
8:48 AM,30.9,24.1,76,30.14,-9999.0,Calm,Calm,-,N/A,,Unknown,0,2012-12-04 15:48:00
9:48 AM,36.0,25.0,64,30.10,-9999.0,Variable,3.5,-,N/A,,Unknown,0,2012-12-04 16:48:00
10:48 AM,39.0,26.1,60,30.09,-9999.0,East,5.8,-,N/A,,Unknown,100,2012-12-04 17:48:00
11:48 AM,39.9,27.0,60,30.08,-9999.0,Calm,Calm,-,N/A,,Unknown,0,2012-12-04 18:48:00
12:48 PM,43.0,21.9,43,30.05,-9999.0,South,9.2,-,N/A,,Unknown,180,2012-12-04 19:48:00
1:48 PM,46.0,21.9,39,29.99,-9999.0,South,12.7,-,N/A,,Unknown,170,2012-12-04 20:48:00
2:48 PM,44.1,21.0,40,29.99,-9999.0,Calm,Calm,-,N/A,,Unknown,0,2012-12-04 21:48:00
3:48 PM,39.9,21.0,47,29.99,-9999.0,East,5.8,-,N/A,,Unknown,90,2012-12-04 22:48:00
4:48 PM,39.9,21.0,47,29.97,-9999.0,SE,6.9,-,N/A,,Unknown,140,2012-12-04 23:48:00
5:48 PM,37.9,21.0,51,29.99,-9999.0,Calm,Calm,-,N/A,,Unknown,0,2012-12-05 00:48:00
6:48 PM,39.9,21.9,49,29.96,-9999.0,Calm,Calm,-,N/A,,Unknown,0,2012-12-05 01:48:00
7:48 PM,39.9,23.0,51,29.96,-9999.0,Calm,Calm,-,N/A,,Unknown,0,2012-12-05 02:48:00
8:48 PM,37.0,23.0,57,29.94,-9999.0,ESE,3.5,-,N/A,,Unknown,110,2012-12-05 03:48:00
9:48 PM,37.9,24.1,57,29.92,-9999.0,ENE,3.5,-,N/A,,Unknown,70,2012-12-05 04:48:00
10:48 PM,37.0,25.0,62,29.90,-9999.0,Calm,Calm,-,N/A,,Unknown,0,2012-12-05 05:48:00
11:48 PM,41.0,25.0,53,29.88,-9999.0,Calm,Calm,-,N/A,,Unknown,0,2012-12-05 06:48:00